Location: Unspecified
(0.0000°N, 0.0000°E)
Time: 07:57:39
(UTC+00:00)

SJ-6F - Pass Details

Date: 04 August 2021
Orbit: 570 x 593 km, 97.8° (Epoch: 27 September)

Event Time Altitude Azimuth Distance (km) Brightness Sun altitude
Rises 04:09:05 0° 10° (N) 2,771 8.3 -27.8°
Reaches altitude 10° 04:11:13 10° 10° (N) 1,872 7.3 -27.3°
Enters shadow 04:13:26 32° 8° (N) 996 5.8 -26.8°
